• In Hungary
  • List of Countries
  • For 7 days
  • Water Temperature
  • Satellite Maps
  • Weather Map
  • News
  • Weather Widgets
  • user-avatar
    Login

    Hourly Weather Stanislavchyk

    Today, 23 October, Monday

    Time Temperature Precipitation Wind Pressure Humidity
    00:00 +1°C° 0 mm 4 mps 736 mmHg 79%
    01:00 +1°C° 0 mm 4 mps 736 mmHg 79%
    02:00 +1°C° 0 mm 4 mps 736 mmHg 78%
    03:00 +1°C° 0 mm 4 mps 735 mmHg 78%
    04:00 +1°C° 0 mm 4 mps 735 mmHg 78%
    05:00 +1°C° 0 mm 4 mps 735 mmHg 77%
    06:00 +1°C° 0 mm 5 mps 734 mmHg 76%
    07:00 +1°C° 0 mm 5 mps 734 mmHg 76%
    08:00 +2°C° 0 mm 6 mps 734 mmHg 75%
    09:00 +3°C° 0 mm 6 mps 734 mmHg 72%
    10:00 +4°C° 0 mm 6 mps 734 mmHg 70%
    11:00 +5°C° 0 mm 6 mps 734 mmHg 68%
    12:00 +7°C° 0 mm 6 mps 733 mmHg 67%
    13:00 +7°C° 0 mm 6 mps 733 mmHg 66%
    14:00 +8°C° 0 mm 6 mps 733 mmHg 65%
    15:00 +7°C° 0 mm 6 mps 733 mmHg 66%
    16:00 +7°C° 0 mm 5 mps 733 mmHg 67%
    17:00 +7°C° 0 mm 5 mps 733 mmHg 68%
    18:00 +7°C° 0.4 mm 5 mps 733 mmHg 72%
    19:00 +5°C° 0.4 mm 6 mps 733 mmHg 75%
    20:00 +5°C° 0.4 mm 6 mps 733 mmHg 78%
    21:00 +5°C° 0.6 mm 6 mps 733 mmHg 79%
    22:00 +4°C° 0.6 mm 6 mps 733 mmHg 79%
    23:00 +5°C° 0.6 mm 5 mps 733 mmHg 80%

    Tomorrow, 24 October, Tuesday

    Time Temperature Precipitation Wind Pressure Humidity
    00:00 +5°C° 0.6 mm 5 mps 734 mmHg 80%
    01:00 +5°C° 0.6 mm 5 mps 734 mmHg 80%
    02:00 +3°C° 0.6 mm 5 mps 734 mmHg 80%
    03:00 +3°C° 0.6 mm 6 mps 734 mmHg 79%
    04:00 +3°C° 0.6 mm 6 mps 734 mmHg 78%
    05:00 +3°C° 0.6 mm 6 mps 735 mmHg 78%
    06:00 +2°C° 0.7 mm 6 mps 735 mmHg 77%
    07:00 +2°C° 0.7 mm 6 mps 736 mmHg 76%
    08:00 +2°C° 0.7 mm 6 mps 736 mmHg 75%
    09:00 +2°C° 0.5 mm 6 mps 737 mmHg 74%
    10:00 +3°C° 0.5 mm 6 mps 737 mmHg 73%
    11:00 +3°C° 0.5 mm 6 mps 738 mmHg 72%
    12:00 +3°C° 0.4 mm 6 mps 738 mmHg 72%
    13:00 +3°C° 0.4 mm 6 mps 738 mmHg 72%
    14:00 +3°C° 0.4 mm 5 mps 739 mmHg 71%
    15:00 +3°C° 0.3 mm 5 mps 739 mmHg 72%
    16:00 +3°C° 0.3 mm 5 mps 739 mmHg 73%
    17:00 +3°C° 0.3 mm 5 mps 739 mmHg 73%
    18:00 +3°C° 0.3 mm 5 mps 740 mmHg 74%
    19:00 +3°C° 0.3 mm 5 mps 740 mmHg 76%
    20:00 +2°C° 0.3 mm 5 mps 741 mmHg 77%
    21:00 +3°C° 0.1 mm 4 mps 741 mmHg 79%
    22:00 +3°C° 0.1 mm 4 mps 741 mmHg 81%
    23:00 +1°C° 0.1 mm 4 mps 741 mmHg 83%

    Day after tomorrow, 25 October, Wednesday

    Time Temperature Precipitation Wind Pressure Humidity
    00:00 +2°C° 0 mm 3 mps 741 mmHg 84%
    01:00 +1°C° 0 mm 3 mps 742 mmHg 86%
    02:00 +1°C° 0 mm 3 mps 742 mmHg 87%
    03:00 -1°C° 0 mm 4 mps 742 mmHg 88%
    04:00 -1°C° 0 mm 4 mps 742 mmHg 88%
    05:00 -1°C° 0 mm 4 mps 742 mmHg 88%
    06:00 -1°C° 0 mm 4 mps 742 mmHg 87%
    07:00 -1°C° 0 mm 4 mps 743 mmHg 85%
    08:00 -1°C° 0 mm 4 mps 743 mmHg 84%
    09:00 0°C° 0 mm 4 mps 743 mmHg 78%
    10:00 +3°C° 0 mm 4 mps 743 mmHg 72%
    11:00 +4°C° 0 mm 4 mps 743 mmHg 66%
    12:00 +5°C° 0 mm 3 mps 743 mmHg 63%
    13:00 +5°C° 0 mm 3 mps 743 mmHg 60%
    14:00 +7°C° 0 mm 3 mps 743 mmHg 57%
    15:00 +5°C° 0 mm 3 mps 743 mmHg 60%
    16:00 +5°C° 0 mm 2 mps 742 mmHg 63%
    17:00 +4°C° 0 mm 2 mps 742 mmHg 67%
    18:00 +4°C° 0 mm 2 mps 742 mmHg 69%
    19:00 +3°C° 0 mm 2 mps 742 mmHg 71%
    20:00 +2°C° 0 mm 2 mps 742 mmHg 72%
    21:00 +2°C° 0 mm 2 mps 742 mmHg 73%
    22:00 +2°C° 0 mm 2 mps 742 mmHg 74%
    23:00 +2°C° 0 mm 2 mps 741 mmHg 74%

    26 October, Thursday

    Time Temperature Precipitation Wind Pressure Humidity
    00:00 +1°C° 0 mm 3 mps 741 mmHg 74%
    01:00 +2°C° 0 mm 3 mps 741 mmHg 73%
    02:00 +1°C° 0 mm 4 mps 740 mmHg 72%
    03:00 +1°C° 0.2 mm 4 mps 740 mmHg 74%
    04:00 +1°C° 0.2 mm 4 mps 739 mmHg 76%
    05:00 +2°C° 0.2 mm 5 mps 739 mmHg 78%
    06:00 +3°C° 0.5 mm 4 mps 739 mmHg 80%
    07:00 +3°C° 0.5 mm 4 mps 739 mmHg 82%
    08:00 +4°C° 0.5 mm 4 mps 738 mmHg 84%
    09:00 +5°C° 0 mm 4 mps 738 mmHg 83%
    10:00 +6°C° 0 mm 4 mps 738 mmHg 82%
    11:00 +8°C° 0 mm 4 mps 738 mmHg 80%
    12:00 +8°C° 0 mm 4 mps 738 mmHg 81%
    13:00 +10°C° 0 mm 4 mps 738 mmHg 81%
    14:00 +11°C° 0 mm 4 mps 738 mmHg 82%
    15:00 +10°C° 0 mm 4 mps 737 mmHg 84%
    16:00 +10°C° 0 mm 3 mps 737 mmHg 87%
    17:00 +10°C° 0 mm 3 mps 737 mmHg 89%
    18:00 +9°C° 0 mm 3 mps 737 mmHg 90%
    19:00 +9°C° 0 mm 3 mps 736 mmHg 90%
    20:00 +8°C° 0 mm 4 mps 736 mmHg 91%
    21:00 +8°C° 0.8 mm 4 mps 735 mmHg 90%
    22:00 +8°C° 0.8 mm 4 mps 735 mmHg 89%
    23:00 +8°C° 0.8 mm 4 mps 734 mmHg 88%

    27 October, Friday

    Time Temperature Precipitation Wind Pressure Humidity
    00:00 +8°C° 1.1 mm 4 mps 734 mmHg 88%
    01:00 +8°C° 1.1 mm 4 mps 733 mmHg 88%
    02:00 +8°C° 1.1 mm 4 mps 733 mmHg 88%
    03:00 +8°C° 0 mm 5 mps 732 mmHg 86%
    04:00 +9°C° 0 mm 5 mps 732 mmHg 85%
    05:00 +9°C° 0 mm 6 mps 731 mmHg 83%
    06:00 +9°C° 0.1 mm 6 mps 731 mmHg 84%
    07:00 +9°C° 0.1 mm 5 mps 731 mmHg 85%
    08:00 +10°C° 0.1 mm 5 mps 731 mmHg 85%
    09:00 +10°C° 0.1 mm 5 mps 730 mmHg 83%
    10:00 +12°C° 0.1 mm 5 mps 730 mmHg 81%
    11:00 +12°C° 0.1 mm 5 mps 730 mmHg 78%
    12:00 +13°C° 0.2 mm 5 mps 729 mmHg 75%
    13:00 +14°C° 0.2 mm 5 mps 728 mmHg 71%
    14:00 +14°C° 0.2 mm 5 mps 728 mmHg 67%
    15:00 +13°C° 0.1 mm 4 mps 727 mmHg 70%
    16:00 +13°C° 0.1 mm 4 mps 726 mmHg 72%
    17:00 +12°C° 0.1 mm 3 mps 726 mmHg 74%
    18:00 +12°C° 0 mm 3 mps 725 mmHg 74%
    19:00 +12°C° 0 mm 4 mps 725 mmHg 74%
    20:00 +11°C° 0 mm 4 mps 724 mmHg 74%
    21:00 +10°C° 0 mm 5 mps 724 mmHg 77%
    22:00 +10°C° 0 mm 5 mps 724 mmHg 79%
    23:00 +10°C° 0 mm 6 mps 724 mmHg 81%

    28 October, Saturday

    Time Temperature Precipitation Wind Pressure Humidity
    00:00 +9°C° 0.2 mm 6 mps 724 mmHg 82%
    01:00 +8°C° 0.2 mm 7 mps 724 mmHg 82%
    02:00 +6°C° 0.2 mm 7 mps 725 mmHg 82%
    03:00 +6°C° 0.1 mm 7 mps 725 mmHg 82%
    04:00 +7°C° 0.1 mm 6 mps 725 mmHg 82%
    05:00 +7°C° 0.1 mm 6 mps 726 mmHg 82%
    06:00 +7°C° 0 mm 6 mps 726 mmHg 80%
    07:00 +7°C° 0 mm 6 mps 726 mmHg 79%
    08:00 +7°C° 0 mm 6 mps 726 mmHg 77%
    09:00 +8°C° 0 mm 6 mps 726 mmHg 74%
    10:00 +8°C° 0 mm 6 mps 726 mmHg 71%
    11:00 +9°C° 0 mm 6 mps 725 mmHg 67%
    12:00 +9°C° 0.1 mm 7 mps 725 mmHg 66%
    13:00 +9°C° 0.1 mm 7 mps 724 mmHg 65%
    14:00 +9°C° 0.1 mm 8 mps 724 mmHg 63%
    15:00 +9°C° 0.1 mm 7 mps 723 mmHg 64%
    16:00 +8°C° 0.1 mm 6 mps 723 mmHg 65%
    17:00 +8°C° 0.1 mm 5 mps 722 mmHg 66%
    18:00 +8°C° 0.1 mm 5 mps 722 mmHg 67%
    19:00 +7°C° 0.1 mm 6 mps 721 mmHg 68%
    20:00 +6°C° 0.1 mm 7 mps 721 mmHg 69%
    21:00 +6°C° 0.1 mm 7 mps 720 mmHg 69%
    22:00 +6°C° 0.1 mm 7 mps 719 mmHg 70%
    23:00 +6°C° 0.1 mm 7 mps 719 mmHg 70%
    Show more